[[{"header":{"parameterUnit":"m.s-1","parameterCategory":1,"la1":30.2991,"la2":30.254,"lo1":-89.0895,"lo2":-89.0444,"dy":0.0017,"dx":0.0017,"nx":28,"ny":28,"refTime":"2024-10-14T09:00:00:Z","depth":0,"parameterNumber":2,"parameterNumberName":"U-component_of_WINDS"},"data":[0,0,0,0,0,0,0,0,0,0,0,0,0,0,0,0,0,0,0,0,0,0,0,0,0,0,0,0,0,0,0,0,0,0,0,0,0,0,0,0,0,0,0,0,0,0,0,0,0,0,0,0,0,0,0,0,0,0,-1.962,-1.9621,0,-1.9758,-1.9759,-1.9761,-1.9758,-1.9756,-1.9754,-1.9752,-1.9896,-1.9902,-1.9907,0,0,0,0,0,0,0,0,0,0,0,0,0,-1.9357,-1.9362,-1.962,-1.9621,-1.9623,-1.9757,-1.9759,-1.9761,-1.9758,-1.9756,-1.9753,-1.9751,-1.9894,-1.9901,-1.9908,0,0,0,0,0,0,0,0,0,0,0,0,0,-1.9481,-1.9363,-1.9619,-1.9638,-1.9641,-1.9757,-1.9759,-1.9762,-1.9759,-1.9756,-1.9753,-1.975,-1.9892,-1.99,-1.9909,-2.0017,0,0,-1.9934,-1.9938,0,0,0,0,0,0,0,0,-1.9474,-1.949,-1.9633,-1.9637,-1.964,-1.9738,-1.972,-1.9847,-1.9759,-1.9714,-1.9752,-1.9749,-1.9846,-1.9858,-1.989,-2.0023,-2.003,-1.9935,-1.994,-1.9944,-1.9946,0,0,0,0,0,0,0,-1.9465,-1.9484,-1.9674,-1.9635,-1.964,-1.964,-1.9655,-1.9744,-1.9794,-1.9718,-1.9718,-1.9734,-1.9847,-1.9882,-1.9893,-2.0032,-1.9935,-1.9942,-1.9947,-1.9951,-2.0262,-2.0265,0,0,0,0,0,0,-1.9452,-1.9477,-1.967,-1.9678,-1.9548,-1.9647,-1.9663,-1.9709,-1.9793,-1.9803,-1.9736,-1.9733,-1.9869,-1.9884,-1.9898,-2.0031,-1.9943,-1.9951,-1.9956,-2.0259,-2.0263,-2.0266,0,0,0,0,0,0,-1.9447,-1.9469,-1.9664,-1.9578,-1.9603,-1.9655,-1.9706,-1.9713,-1.9748,-1.9807,-1.9816,-1.9762,-1.9867,-1.9887,-1.9987,-2.0035,-1.9955,-1.9963,-2.0255,-2.026,-2.0264,-2.0295,0,0,0,0,0,0,-1.9439,-1.9467,-1.9508,-1.9579,-1.9607,-1.975,-1.9709,-1.9718,-1.9762,-1.976,-1.9834,-1.9843,-1.9867,-1.9975,-1.9996,-2.0046,-1.9969,-2.0251,-2.0257,-2.0263,-2.029,-2.0301,-2.031,0,0,0,0,0,-1.943,-1.9512,-1.951,-1.9533,-1.9659,-1.9753,-1.9769,-1.9793,-1.9766,-1.9808,-1.9846,-1.9841,-2.0027,-1.9985,-2.0009,-2.0062,-2.0248,-2.0255,-2.0262,-2.0286,-2.0299,-2.0309,0,0,0,0,0,0,-1.9445,-1.9521,-1.952,-1.9627,-1.9684,-1.9752,-1.9805,-1.9806,-1.9871,-1.9866,-1.9895,-1.9912,-2.0012,-2.0047,-1.9999,-2.0171,-2.0134,-2.0147,-2.0144,-2.0157,-2.0166,-2.0155,-1.9976,0,0,0,0,0,-1.9461,-1.953,-1.9593,-1.9682,-1.971,-1.9753,-1.9794,-1.9808,-1.9868,-1.9892,-1.9937,-1.9996,-2.0068,-2.0115,-2.0184,-2.0296,-2.0312,-2.0344,-2.0354,-2.0362,-2.0372,-2.0434,-2.0449,-2.029,-2.029,-2.029,0,0,-1.9495,-1.9545,-1.9586,-1.9686,-1.9731,-1.9802,-1.9773,-1.9849,-1.9903,-1.9904,-2.0001,-2.0037,-2.0105,-2.0211,-2.0261,-2.0244,-2.042,-2.0371,-2.0377,-2.0383,-2.0443,-2.0458,-2.0471,-2.0295,-2.0294,-2.0293,0,0,-1.9592,-1.9637,-1.9715,-1.9762,-1.983,-1.9859,-1.9878,-1.9947,-1.997,-2.0068,-2.0071,-2.0136,-2.0259,-2.0307,-2.0347,-2.0465,-2.0463,-2.0487,-2.0537,-2.0598,-2.061,-2.0622,-2.0663,-2.0678,-2.0497,-2.0498,-2.0498,0,-1.9625,-1.9732,-1.9756,-1.9833,-1.9877,-1.9881,-1.9962,-2.0006,-2.0094,-2.0125,-2.0105,-2.026,-2.0306,-2.0424,-2.0453,-2.0486,-2.0509,-2.0478,-2.0607,-2.0618,-2.0629,-2.0669,-2.0685,-2.05,-2.05,-2.0499,-2.0499,0,-1.9769,-1.9843,-1.9899,-1.9983,-2.0034,-2.0112,-2.015,-2.0198,-2.0209,-2.024,-2.034,-2.0396,-2.0477,-2.0506,-2.0517,-2.0627,-2.0614,-2.06,-2.0563,-2.0646,-2.0684,-2.07,-2.0503,-2.0502,-2.0502,-2.0501,0,0,-1.9877,-1.9976,-1.9995,-2.0034,-2.0111,-2.017,-2.0249,-2.0328,-2.0369,-2.0431,-2.0498,-2.0603,-2.0591,-2.0637,-2.0654,-2.0707,-2.0797,-2.0687,-2.0689,-2.0705,-2.0921,-2.093,-2.0947,-2.0797,-2.08,-2.0802,-2.0915,0,-1.9982,-2.0122,-2.0147,-2.027,-2.0339,-2.0345,-2.0415,-2.047,-2.0502,-2.0566,-2.0602,-2.0675,-2.0654,-2.0682,-2.0735,-2.0775,-2.0841,-2.0767,-2.086,-2.0863,-2.0841,-2.0967,-2.0977,-2.1081,-2.093,-2.0933,-2.0935,0,-2.0122,-2.0186,-2.0315,-2.0384,-2.0414,-2.0476,-2.0551,-2.0612,-2.0676,-2.0695,-2.0748,-2.0759,-2.0843,-2.0804,-2.092,-2.087,-2.091,-2.0936,-2.094,-2.0949,-2.0903,-2.0978,-2.1114,-2.1129,-2.0959,-2.0957,-2.0955,0,-2.0187,-2.0307,-2.0399,-2.0433,-2.0515,-2.0559,-2.0596,-2.0657,-2.0703,-2.0769,-2.0799,-2.0874,-2.0915,-2.0974,-2.1005,-2.0974,-2.112,-2.1083,-2.1139,-2.1138,-2.1167,-2.1165,-2.1311,-2.1196,-2.1196,-2.1195,-2.1195,0,-2.03,-2.0379,-2.043,-2.0487,-2.0576,-2.0605,-2.0693,-2.0729,-2.0784,-2.0849,-2.086,-2.0921,-2.0959,-2.1026,-2.1052,-2.1145,-2.1164,-2.1182,-2.1188,-2.118,-2.1178,-2.1206,-2.1199,-2.1199,-2.1199,-2.1198,-2.1197,0,-2.0387,-2.0424,-2.0526,-2.0596,-2.0616,-2.0678,-2.0739,-2.0796,-2.0828,-2.091,-2.0931,-2.0983,-2.1062,-2.11,-2.1199,-2.1216,-2.1321,-2.1323,-2.1299,-2.1301,-2.1354,-2.1348,-2.1522,-2.1546,-2.1416,-2.1417,-2.1418,0,-2.0455,-2.0516,-2.0593,-2.0637,-2.0675,-2.0746,-2.0793,-2.0826,-2.0874,-2.0953,-2.1,-2.108,-2.1145,-2.1272,-2.1319,-2.1395,-2.1397,-2.1453,-2.1409,-2.14,-2.1397,-2.1392,-2.1399,-2.146,-2.1462,-2.1463,-2.1464,0,-2.0573,-2.0589,-2.0656,-2.073,-2.0786,-2.0846,-2.0905,-2.0941,-2.0984,-2.1038,-2.1119,-2.117,-2.1271,-2.135,-2.143,-2.1469,-2.1474,-2.1478,-2.1494,-2.1486,-2.147,-2.1478,-2.1319,-2.1473,-2.1472,-2.1471,-2.1471,-2.147,-2.0652,-2.0707,-2.077,-2.0844,-2.0893,-2.0948,-2.1004,-2.1044,-2.1112,-2.1196,-2.1212,-2.1299,-2.1363,-2.147,-2.1512,-2.1581,-2.1568,-2.1592,-2.1598,-2.1603,-2.1605,-2.146,-2.1596,-2.1595,-2.1595,-2.1595,-2.1595,0,-2.0769,-2.0811,-2.0879,-2.0962,-2.1021,-2.1021,-2.1087,-2.1136,-2.1212,-2.1271,-2.1336,-2.1429,-2.1507,-2.1561,-2.164,-2.1684,-2.1688,-2.1704,-2.17,-2.1709,-2.1613,-2.159,-2.1699,-2.1699,-2.1699,-2.1699,-2.1699,-2.1699,-2.0837,-2.0929,-2.0953,-2.107,-2.1111,-2.1195,-2.1233,-2.1284,-2.1332,-2.1436,-2.15,-2.1534,-2.1592,-2.1675,-2.1747,-2.1761,-2.1789,-2.1804,-2.1818,-2.1727,-2.1716,-2.1705,-2.1684,-2.1811,-2.1811,-2.1908,-2.1909,-2.191]},{"header":{"parameterUnit":"m.s-1","parameterCategory":1,"la1":30.2991,"la2":30.254,"lo1":-89.0895,"lo2":-89.0444,"dy":0.0017,"dx":0.0017,"nx":28,"ny":28,"refTime":"2024-10-14T09:00:00:Z","depth":0,"parameterNumber":3,"parameterNumberName":"V-component_of_WINDS"},"data":[0,0,0,0,0,0,0,0,0,0,0,0,0,0,0,0,0,0,0,0,0,0,0,0,0,0,0,0,0,0,0,0,0,0,0,0,0,0,0,0,0,0,0,0,0,0,0,0,0,0,0,0,0,0,0,0,0,0,-2.2697,-2.2697,0,-2.2742,-2.2742,-2.2743,-2.273,-2.2729,-2.2728,-2.2727,-2.2771,-2.2773,-2.2775,0,0,0,0,0,0,0,0,0,0,0,0,0,-2.2597,-2.2599,-2.2697,-2.2697,-2.2698,-2.2742,-2.2742,-2.2743,-2.273,-2.2729,-2.2728,-2.2727,-2.2771,-2.2773,-2.2775,0,0,0,0,0,0,0,0,0,0,0,0,0,-2.2641,-2.2599,-2.2697,-2.2697,-2.2697,-2.2741,-2.2742,-2.2743,-2.273,-2.2729,-2.2727,-2.2726,-2.277,-2.2773,-2.2776,-2.2822,0,0,-2.2785,-2.2786,0,0,0,0,0,0,0,0,-2.2638,-2.2644,-2.2696,-2.2697,-2.2697,-2.2729,-2.2723,-2.2769,-2.273,-2.2718,-2.2727,-2.2725,-2.2758,-2.2762,-2.2773,-2.2824,-2.2826,-2.2785,-2.2787,-2.2788,-2.2789,0,0,0,0,0,0,0,-2.2635,-2.2642,-2.2714,-2.2697,-2.2698,-2.2694,-2.2698,-2.2732,-2.2745,-2.2719,-2.2718,-2.2723,-2.2758,-2.277,-2.2774,-2.2827,-2.2785,-2.2788,-2.279,-2.2791,-2.2916,-2.2918,0,0,0,0,0,0,-2.2632,-2.264,-2.2713,-2.2716,-2.2664,-2.2696,-2.2702,-2.272,-2.2745,-2.2747,-2.2724,-2.2723,-2.2766,-2.2771,-2.2776,-2.2831,-2.2788,-2.2791,-2.2793,-2.2915,-2.2917,-2.2918,0,0,0,0,0,0,-2.263,-2.2639,-2.2711,-2.2678,-2.2687,-2.27,-2.272,-2.2722,-2.2734,-2.2749,-2.2751,-2.2735,-2.2765,-2.2772,-2.2811,-2.2833,-2.2793,-2.2795,-2.2913,-2.2916,-2.2918,-2.2943,0,0,0,0,0,0,-2.2627,-2.2638,-2.2657,-2.2678,-2.2688,-2.2746,-2.2722,-2.2724,-2.274,-2.2737,-2.2759,-2.2762,-2.2764,-2.2806,-2.2814,-2.2836,-2.2798,-2.2911,-2.2914,-2.2917,-2.294,-2.2946,-2.2951,0,0,0,0,0,-2.2624,-2.2662,-2.2658,-2.2667,-2.2712,-2.2748,-2.2753,-2.2756,-2.2741,-2.276,-2.2769,-2.2761,-2.2829,-2.281,-2.2819,-2.2842,-2.291,-2.2913,-2.2917,-2.2938,-2.2945,-2.295,0,0,0,0,0,0,-2.2643,-2.2665,-2.2661,-2.2707,-2.2726,-2.2745,-2.2769,-2.2764,-2.2786,-2.2783,-2.2785,-2.279,-2.283,-2.284,-2.2819,-2.2888,-2.2867,-2.2872,-2.288,-2.2887,-2.2892,-2.2889,-2.28,0,0,0,0,0,-2.2652,-2.268,-2.2697,-2.2737,-2.2746,-2.2756,-2.2771,-2.2772,-2.2791,-2.2799,-2.2811,-2.2829,-2.2854,-2.2871,-2.2895,-2.2941,-2.2945,-2.2961,-2.2967,-2.2971,-2.2975,-2.3,-2.3007,-2.293,-2.2929,-2.2929,0,0,-2.2672,-2.2688,-2.2705,-2.2741,-2.2755,-2.2783,-2.2763,-2.2793,-2.2813,-2.2803,-2.2841,-2.285,-2.287,-2.2913,-2.2932,-2.2922,-2.2997,-2.2975,-2.2978,-2.2981,-2.3004,-2.3011,-2.3018,-2.2932,-2.2931,-2.2931,0,0,-2.2723,-2.2738,-2.2772,-2.2787,-2.2809,-2.2814,-2.2822,-2.2843,-2.2849,-2.2887,-2.2879,-2.2903,-2.2947,-2.2961,-2.2974,-2.3029,-2.3022,-2.3036,-2.3064,-2.3087,-2.3093,-2.3099,-2.3118,-2.3125,-2.3041,-2.3041,-2.3041,0,-2.2745,-2.2788,-2.279,-2.2821,-2.2836,-2.2828,-2.2862,-2.2876,-2.2904,-2.2915,-2.2903,-2.2957,-2.297,-2.3016,-2.3029,-2.304,-2.3048,-2.3034,-2.3092,-2.3098,-2.3103,-2.3121,-2.3128,-2.3042,-2.3042,-2.3042,-2.3042,0,-2.2813,-2.2843,-2.2867,-2.2895,-2.2913,-2.2946,-2.2952,-2.2969,-2.2968,-2.2974,-2.3012,-2.3027,-2.3054,-2.3065,-2.3064,-2.311,-2.3103,-2.3092,-2.3071,-2.3112,-2.3129,-2.3136,-2.3045,-2.3044,-2.3044,-2.3043,0,0,-2.2879,-2.2907,-2.2916,-2.2928,-2.2951,-2.2973,-2.3004,-2.303,-2.3045,-2.3065,-2.309,-2.3127,-2.3116,-2.3131,-2.3131,-2.3152,-2.3193,-2.3138,-2.3139,-2.3148,-2.3244,-2.3253,-2.3261,-2.3189,-2.319,-2.3191,-2.3243,0,-2.2932,-2.2988,-2.299,-2.304,-2.3066,-2.3058,-2.3085,-2.3101,-2.3108,-2.313,-2.3137,-2.3163,-2.3147,-2.3156,-2.3176,-2.3184,-2.3213,-2.318,-2.3212,-2.3213,-2.3208,-2.327,-2.328,-2.3328,-2.3249,-2.3251,-2.3251,0,-2.3002,-2.3023,-2.3076,-2.3094,-2.3105,-2.313,-2.3153,-2.3175,-2.3193,-2.3196,-2.3212,-2.3209,-2.3239,-2.3217,-2.3258,-2.3236,-2.3249,-2.3255,-2.3257,-2.326,-2.3235,-2.3276,-2.3343,-2.3351,-2.3262,-2.3261,-2.326,0,-2.3044,-2.3086,-2.3123,-2.3134,-2.3156,-2.3173,-2.3183,-2.3199,-2.3214,-2.3235,-2.3244,-2.3268,-2.3281,-2.3298,-2.3301,-2.3284,-2.3342,-2.332,-2.3345,-2.3345,-2.3359,-2.3358,-2.343,-2.3366,-2.3366,-2.3366,-2.3366,0,-2.3103,-2.3136,-2.3143,-2.3166,-2.3201,-2.3202,-2.3238,-2.3246,-2.326,-2.3284,-2.3277,-2.3299,-2.3301,-2.3324,-2.3326,-2.3359,-2.3365,-2.3368,-2.3368,-2.3369,-2.3369,-2.3378,-2.3375,-2.3368,-2.3368,-2.3367,-2.3367,0,-2.3157,-2.3163,-2.3203,-2.322,-2.3225,-2.3251,-2.3265,-2.3286,-2.3291,-2.3321,-2.3328,-2.3336,-2.3362,-2.3366,-2.3396,-2.3397,-2.3438,-2.3435,-2.3432,-2.3432,-2.3457,-2.3455,-2.3538,-2.3549,-2.3478,-2.3478,-2.3479,0,-2.3195,-2.322,-2.324,-2.3255,-2.3266,-2.3291,-2.3306,-2.3308,-2.3324,-2.3345,-2.3363,-2.3388,-2.3409,-2.345,-2.3458,-2.3481,-2.3478,-2.3506,-2.3482,-2.3481,-2.3479,-2.3478,-2.348,-2.3511,-2.3511,-2.3512,-2.3513,0,-2.3262,-2.3263,-2.3286,-2.3309,-2.3328,-2.3346,-2.3364,-2.3376,-2.338,-2.3398,-2.3424,-2.344,-2.3471,-2.3495,-2.3518,-2.3527,-2.352,-2.352,-2.3527,-2.3528,-2.3526,-2.3528,-2.3445,-2.3518,-2.3518,-2.3517,-2.3517,-2.3517,-2.3309,-2.3331,-2.3347,-2.3373,-2.3386,-2.3402,-2.3422,-2.343,-2.3452,-2.3477,-2.3476,-2.3505,-2.352,-2.355,-2.356,-2.3582,-2.3573,-2.3583,-2.3586,-2.3589,-2.3591,-2.3522,-2.3586,-2.3586,-2.3586,-2.3586,-2.3585,0,-2.3375,-2.3385,-2.3408,-2.3433,-2.3452,-2.3444,-2.3462,-2.3479,-2.3505,-2.352,-2.354,-2.3569,-2.3593,-2.3602,-2.3625,-2.3641,-2.3638,-2.3647,-2.3646,-2.3648,-2.3598,-2.359,-2.3649,-2.3649,-2.3649,-2.3649,-2.3649,-2.3649,-2.3412,-2.3448,-2.3451,-2.3492,-2.3502,-2.353,-2.3541,-2.3556,-2.3568,-2.3601,-2.3621,-2.3627,-2.3639,-2.3663,-2.3684,-2.3686,-2.3695,-2.3704,-2.3705,-2.3658,-2.3652,-2.3646,-2.3638,-2.3706,-2.3706,-2.3754,-2.3754,-2.3755]}]]